Time,TemperatureF,DewpointF,PressureIn,WindDirection,WindDirectionDegrees,WindSpeedMPH,WindSpeedGustMPH,Humidity,HourlyPrecipIn,Conditions,Clouds,dailyrainin,SoftwareType,DateUTC
2013-02-24 00:12:00,18.2,15.0,29.96,NNE,24,1.0,2.0,88,0.00,,,0.07,weatherlink.com 1.10,2013-02-24 07:12:00,
2013-02-24 00:27:00,18.2,15.0,29.97,NNE,24,0.0,3.0,88,0.00,,,0.00,weatherlink.com 1.10,2013-02-24 07:27:00,
2013-02-24 00:42:00,18.2,15.0,29.97,NNE,22,0.0,3.0,88,0.00,,,0.00,weatherlink.com 1.10,2013-02-24 07:42:00,
2013-02-24 00:57:00,18.1,15.0,29.97,NNE,22,0.0,1.0,88,0.00,,,0.00,weatherlink.com 1.10,2013-02-24 07:57:00,
2013-02-24 01:12:00,18.1,15.0,29.97,NNE,22,0.0,1.0,88,0.00,,,0.00,weatherlink.com 1.10,2013-02-24 08:12:00,
2013-02-24 01:27:00,18.1,15.0,29.97,NNE,22,0.0,3.0,88,0.00,,,0.00,weatherlink.com 1.10,2013-02-24 08:27:00,
2013-02-24 01:42:00,18.0,15.0,29.96,North,360,0.0,1.0,88,0.00,,,0.00,weatherlink.com 1.10,2013-02-24 08:42:00,
2013-02-24 01:57:00,18.0,15.0,29.96,North,360,0.0,1.0,88,0.00,,,0.00,weatherlink.com 1.10,2013-02-24 08:57:00,
2013-02-24 02:12:00,18.1,15.0,29.95,North,360,0.0,2.0,87,0.00,,,0.00,weatherlink.com 1.10,2013-02-24 09:12:00,
2013-02-24 02:27:00,18.1,15.0,29.95,North,360,0.0,2.0,87,0.00,,,0.00,weatherlink.com 1.10,2013-02-24 09:27:00,
2013-02-24 02:42:00,18.1,15.0,29.94,North,360,0.0,2.0,87,0.00,,,0.00,weatherlink.com 1.10,2013-02-24 09:42:00,
2013-02-24 02:57:00,18.1,15.0,29.94,North,360,0.0,3.0,88,0.00,,,0.00,weatherlink.com 1.10,2013-02-24 09:57:00,
2013-02-24 03:12:00,18.1,15.0,29.94,ENE,66,0.0,5.0,89,0.00,,,0.00,weatherlink.com 1.10,2013-02-24 10:12:00,
2013-02-24 03:27:00,17.9,15.0,29.94,NE,34,0.0,3.0,89,0.00,,,0.00,weatherlink.com 1.10,2013-02-24 10:27:00,
2013-02-24 03:42:00,17.8,15.0,29.93,NE,38,0.0,4.0,89,0.00,,,0.00,weatherlink.com 1.10,2013-02-24 10:42:00,
2013-02-24 03:57:00,17.7,15.0,29.93,NE,54,1.0,5.0,89,0.00,,,0.00,weatherlink.com 1.10,2013-02-24 10:57:00,
2013-02-24 04:12:00,17.7,15.0,29.94,North,360,0.0,3.0,89,0.00,,,0.00,weatherlink.com 1.10,2013-02-24 11:12:00,
2013-02-24 04:27:00,17.6,15.0,29.95,North,11,0.0,4.0,89,0.00,,,0.00,weatherlink.com 1.10,2013-02-24 11:27:00,
2013-02-24 04:42:00,17.6,15.0,29.95,NE,42,3.0,5.0,89,0.00,,,0.00,weatherlink.com 1.10,2013-02-24 11:42:00,
2013-02-24 04:57:00,17.5,15.0,29.95,ENE,61,1.0,5.0,90,0.00,,,0.00,weatherlink.com 1.10,2013-02-24 11:57:00,
2013-02-24 05:12:00,17.5,15.0,29.96,East,79,0.0,6.0,90,0.00,,,0.00,weatherlink.com 1.10,2013-02-24 12:12:00,
2013-02-24 05:28:00,17.5,15.0,29.96,ENE,61,2.0,7.0,90,0.00,,,0.00,weatherlink.com 1.10,2013-02-24 12:28:00,
2013-02-24 05:43:00,17.5,15.0,29.96,East,86,0.0,5.0,90,0.00,,,0.00,weatherlink.com 1.10,2013-02-24 12:43:00,
2013-02-24 05:58:00,17.5,15.0,29.96,NE,40,0.0,6.0,90,0.00,,,0.00,weatherlink.com 1.10,2013-02-24 12:58:00,
2013-02-24 06:13:00,17.5,15.0,29.97,North,5,1.0,7.0,90,0.00,,,0.00,weatherlink.com 1.10,2013-02-24 13:13:00,
2013-02-24 06:28:00,17.4,15.0,29.98,NE,53,1.0,7.0,90,0.00,,,0.00,weatherlink.com 1.10,2013-02-24 13:28:00,
2013-02-24 06:43:00,17.3,15.0,29.98,NNE,33,6.0,8.0,89,0.00,,,0.00,weatherlink.com 1.10,2013-02-24 13:43:00,
2013-02-24 06:58:00,17.0,14.0,29.98,ENE,76,0.0,5.0,89,0.00,,,0.00,weatherlink.com 1.10,2013-02-24 13:58:00,
2013-02-24 07:13:00,16.9,14.0,29.99,ENE,76,0.0,3.0,89,0.00,,,0.00,weatherlink.com 1.10,2013-02-24 14:13:00,
2013-02-24 07:28:00,16.9,14.0,30.00,ENE,61,0.0,6.0,89,0.00,,,0.00,weatherlink.com 1.10,2013-02-24 14:28:00,
2013-02-24 07:43:00,17.0,14.0,30.01,ENE,61,2.0,7.0,89,0.00,,,0.00,weatherlink.com 1.10,2013-02-24 14:43:00,
2013-02-24 07:58:00,17.1,14.0,30.01,ENE,69,1.0,11.0,89,0.00,,,0.00,weatherlink.com 1.10,2013-02-24 14:58:00,
2013-02-24 08:13:00,17.3,15.0,30.02,NE,39,0.0,8.0,89,0.00,,,0.00,weatherlink.com 1.10,2013-02-24 15:13:00,
2013-02-24 08:28:00,17.3,15.0,30.03,SE,126,0.0,12.0,89,0.00,,,0.00,weatherlink.com 1.10,2013-02-24 15:28:00,
2013-02-24 08:43:00,17.3,15.0,30.03,NE,37,3.0,11.0,89,0.00,,,0.00,weatherlink.com 1.10,2013-02-24 15:43:00,
2013-02-24 08:58:00,17.0,14.0,30.04,NE,46,2.0,16.0,88,0.00,,,0.00,weatherlink.com 1.10,2013-02-24 15:58:00,
2013-02-24 09:13:00,16.7,14.0,30.05,NE,55,3.0,11.0,88,0.00,,,0.00,weatherlink.com 1.10,2013-02-24 16:13:00,
2013-02-24 09:28:00,16.1,13.0,30.06,NNE,32,4.0,14.0,88,0.00,,,0.00,weatherlink.com 1.10,2013-02-24 16:28:00,
2013-02-24 09:43:00,15.7,13.0,30.08,NE,53,2.0,10.0,88,0.00,,,0.00,weatherlink.com 1.10,2013-02-24 16:43:00,
2013-02-24 09:58:00,15.5,13.0,30.09,ENE,71,4.0,11.0,88,0.00,,,0.00,weatherlink.com 1.10,2013-02-24 16:58:00,
2013-02-24 10:13:00,15.3,12.0,30.11,NE,53,1.0,10.0,88,0.00,,,0.00,weatherlink.com 1.10,2013-02-24 17:13:00,
2013-02-24 10:28:00,15.2,12.0,30.12,NNE,32,13.0,13.0,88,0.00,,,0.00,weatherlink.com 1.10,2013-02-24 17:28:00,
2013-02-24 10:43:00,15.3,12.0,30.12,ENE,62,3.0,12.0,88,0.00,,,0.00,weatherlink.com 1.10,2013-02-24 17:43:00,
2013-02-24 10:58:00,15.4,12.0,30.13,ENE,59,9.0,12.0,87,0.00,,,0.00,weatherlink.com 1.10,2013-02-24 17:58:00,
2013-02-24 11:13:00,15.2,12.0,30.14,NNE,26,2.0,13.0,87,0.00,,,0.00,weatherlink.com 1.10,2013-02-24 18:13:00,
2013-02-24 11:28:00,15.3,12.0,30.15,ENE,60,1.0,11.0,87,0.00,,,0.00,weatherlink.com 1.10,2013-02-24 18:28:00,
2013-02-24 11:43:00,15.6,13.0,30.15,ENE,74,2.0,8.0,88,0.00,,,0.00,weatherlink.com 1.10,2013-02-24 18:43:00,
2013-02-24 11:58:00,16.2,13.0,30.15,East,88,0.0,6.0,87,0.00,,,0.00,weatherlink.com 1.10,2013-02-24 18:58:00,
2013-02-24 12:13:00,16.7,13.0,30.15,NNE,32,5.0,8.0,86,0.00,,,0.00,weatherlink.com 1.10,2013-02-24 19:13:00,
2013-02-24 12:28:00,17.2,14.0,30.16,NE,36,5.0,10.0,86,0.00,,,0.00,weatherlink.com 1.10,2013-02-24 19:28:00,
2013-02-24 12:43:00,17.1,14.0,30.17,ENE,57,1.0,9.0,86,0.00,,,0.00,weatherlink.com 1.10,2013-02-24 19:43:00,
2013-02-24 12:58:00,16.8,13.0,30.18,NNE,25,2.0,8.0,86,0.00,,,0.00,weatherlink.com 1.10,2013-02-24 19:58:00,
2013-02-24 13:13:00,16.6,13.0,30.18,East,80,0.0,11.0,86,0.00,,,0.00,weatherlink.com 1.10,2013-02-24 20:13:00,
2013-02-24 13:28:00,16.8,13.0,30.19,North,5,0.0,10.0,85,0.00,,,0.00,weatherlink.com 1.10,2013-02-24 20:28:00,
2013-02-24 13:43:00,17.3,14.0,30.20,ENE,72,0.0,6.0,85,0.00,,,0.00,weatherlink.com 1.10,2013-02-24 20:43:00,
2013-02-24 13:58:00,17.7,14.0,30.20,ENE,77,2.0,7.0,85,0.00,,,0.00,weatherlink.com 1.10,2013-02-24 20:58:00,
2013-02-24 14:13:00,17.9,14.0,30.20,ENE,77,4.0,9.0,85,0.00,,,0.00,weatherlink.com 1.10,2013-02-24 21:13:00,
2013-02-24 14:28:00,17.9,14.0,30.21,NNE,25,2.0,8.0,84,0.00,,,0.00,weatherlink.com 1.10,2013-02-24 21:28:00,
2013-02-24 14:43:00,18.2,14.0,30.22,NE,40,1.0,7.0,84,0.00,,,0.00,weatherlink.com 1.10,2013-02-24 21:43:00,
2013-02-24 14:58:00,18.3,14.0,30.23,NE,56,6.0,8.0,84,0.00,,,0.00,weatherlink.com 1.10,2013-02-24 21:58:00,
2013-02-24 15:13:00,17.7,14.0,30.24,ENE,66,2.0,8.0,84,0.00,,,0.00,weatherlink.com 1.10,2013-02-24 22:13:00,
2013-02-24 15:29:00,17.7,14.0,30.25,NE,50,3.0,7.0,84,0.00,,,0.00,weatherlink.com 1.10,2013-02-24 22:29:00,
2013-02-24 15:44:00,17.1,13.0,30.26,NE,48,4.0,8.0,84,0.00,,,0.00,weatherlink.com 1.10,2013-02-24 22:44:00,
2013-02-24 15:59:00,16.6,13.0,30.27,ENE,71,2.0,9.0,84,0.00,,,0.00,weatherlink.com 1.10,2013-02-24 22:59:00,
2013-02-24 16:14:00,16.2,13.0,30.29,North,355,6.0,7.0,85,0.00,,,0.00,weatherlink.com 1.10,2013-02-24 23:14:00,
2013-02-24 16:29:00,16.1,12.0,30.30,NE,51,0.0,6.0,85,0.00,,,0.00,weatherlink.com 1.10,2013-02-24 23:29:00,
2013-02-24 16:44:00,15.9,13.0,30.31,NE,51,2.0,6.0,86,0.00,,,0.00,weatherlink.com 1.10,2013-02-24 23:44:00,
2013-02-24 16:59:00,15.6,12.0,30.33,NE,55,3.0,7.0,86,0.00,,,0.00,weatherlink.com 1.10,2013-02-24 23:59:00,
2013-02-24 17:14:00,15.4,12.0,30.34,ENE,59,0.0,3.0,86,0.00,,,0.00,weatherlink.com 1.10,2013-02-25 00:14:00,
2013-02-24 17:29:00,15.2,12.0,30.35,ENE,64,1.0,4.0,87,0.00,,,0.00,weatherlink.com 1.10,2013-02-25 00:29:00,
2013-02-24 17:44:00,14.7,12.0,30.36,ENE,66,0.0,4.0,87,0.00,,,0.00,weatherlink.com 1.10,2013-02-25 00:44:00,
2013-02-24 17:59:00,14.6,12.0,30.38,ENE,66,1.0,4.0,88,0.00,,,0.00,weatherlink.com 1.10,2013-02-25 00:59:00,
2013-02-24 18:14:00,14.3,11.0,30.39,ENE,66,1.0,3.0,88,0.00,,,0.00,weatherlink.com 1.10,2013-02-25 01:14:00,
2013-02-24 18:29:00,14.2,11.0,30.39,ENE,66,0.0,2.0,88,0.00,,,0.00,weatherlink.com 1.10,2013-02-25 01:29:00,
2013-02-24 18:44:00,14.1,11.0,30.40,ENE,66,0.0,2.0,88,0.00,,,0.00,weatherlink.com 1.10,2013-02-25 01:44:00,
2013-02-24 18:59:00,14.0,11.0,30.41,ENE,66,0.0,0.0,88,0.00,,,0.00,weatherlink.com 1.10,2013-02-25 01:59:00,
2013-02-24 19:14:00,13.9,11.0,30.41,ENE,66,0.0,0.0,88,0.00,,,0.00,weatherlink.com 1.10,2013-02-25 02:14:00,
2013-02-24 19:29:00,13.7,11.0,30.42,ENE,66,0.0,0.0,87,0.00,,,0.00,weatherlink.com 1.10,2013-02-25 02:29:00,
2013-02-24 19:44:00,13.3,10.0,30.43,ENE,66,0.0,0.0,87,0.00,,,0.00,weatherlink.com 1.10,2013-02-25 02:44:00,
2013-02-24 20:00:00,12.4,9.0,30.43,ENE,66,0.0,1.0,85,0.00,,,0.00,weatherlink.com 1.10,2013-02-25 03:00:00,
2013-02-24 20:15:00,11.3,7.0,30.43,ENE,66,1.0,2.0,84,0.00,,,0.00,weatherlink.com 1.10,2013-02-25 03:15:00,
2013-02-24 20:30:00,10.2,6.0,30.44,ENE,66,0.0,2.0,83,0.00,,,0.00,weatherlink.com 1.10,2013-02-25 03:30:00,
2013-02-24 20:45:00,9.0,5.0,30.45,ENE,66,0.0,2.0,83,0.00,,,0.00,weatherlink.com 1.10,2013-02-25 03:45:00,
2013-02-24 21:00:00,7.8,3.0,30.44,ENE,66,1.0,2.0,82,0.00,,,0.00,weatherlink.com 1.10,2013-02-25 04:00:00,
2013-02-24 21:15:00,7.0,3.0,30.45,ENE,66,0.0,2.0,83,0.00,,,0.00,weatherlink.com 1.10,2013-02-25 04:15:00,
2013-02-24 21:30:00,6.5,2.0,30.46,ENE,66,0.0,0.0,83,0.00,,,0.00,weatherlink.com 1.10,2013-02-25 04:30:00,
2013-02-24 21:45:00,6.0,2.0,30.46,ENE,66,0.0,0.0,83,0.00,,,0.00,weatherlink.com 1.10,2013-02-25 04:45:00,
2013-02-24 22:00:00,5.4,1.0,30.46,ENE,66,0.0,1.0,83,0.00,,,0.00,weatherlink.com 1.10,2013-02-25 05:00:00,
2013-02-24 22:15:00,5.2,1.0,30.47,ENE,66,0.0,1.0,84,0.00,,,0.00,weatherlink.com 1.10,2013-02-25 05:15:00,
2013-02-24 22:30:00,5.6,2.0,30.47,ENE,66,0.0,1.0,86,0.00,,,0.00,weatherlink.com 1.10,2013-02-25 05:30:00,
2013-02-24 22:45:00,6.2,3.0,30.47,ENE,66,2.0,2.0,87,0.00,,,0.00,weatherlink.com 1.10,2013-02-25 05:45:00,
2013-02-24 23:00:00,6.4,3.0,30.47,ENE,65,0.0,3.0,87,0.00,,,0.00,weatherlink.com 1.10,2013-02-25 06:00:00,
2013-02-24 23:15:00,5.7,2.0,30.46,WNW,290,2.0,4.0,84,0.00,,,0.00,weatherlink.com 1.10,2013-02-25 06:15:00,
2013-02-24 23:30:00,5.3,2.0,30.47,WNW,288,0.0,2.0,85,0.00,,,0.00,weatherlink.com 1.10,2013-02-25 06:30:00,
2013-02-24 23:45:00,5.4,2.0,30.46,WNW,288,0.0,4.0,85,0.00,,,0.00,weatherlink.com 1.10,2013-02-25 06:45:00,